Location: ????? ??????
(37.8317°N, 23.8750°E)
Time: 13:42:44
(UTC+00:00)

SJ-11-01 - Pass Details

Date: 20 January 2021
Orbit: 684 x 700 km, 98.0° (Epoch: 04 March)

Event Time Altitude Azimuth Distance (km) Brightness Sun altitude
Rises 17:06:34 0° 160° (SSE) 3,057 7.5 -18.0°
Reaches altitude 10° 17:08:49 10° 157° (SSE) 2,142 6.7 -18.4°
Maximum altitude 17:13:29 68° 75° (ENE) 746 4.2 -19.3°
Drops below altitude 10° 17:18:08 10° 353° (N) 2,147 6.8 -20.3°
Sets 17:20:24 0° 351° (N) 3,065 7.6 -20.7°
